{"data":{"norad_id":48377,"intl_designator":"2021-038AA","name":"STARLINK-2499","alt_names":[],"object_type":"PAYLOAD","status":"ACTIVE","operator":null,"country":"US","launch_date":"2021-05-04","launch_site_code":"AFETR","launch_vehicle":null,"mission":null,"orbit_class":"UNKNOWN","rcs_meters":null,"size_class":null,"mass_kg":null,"dimensions":null,"purposes":["comms"],"wikipedia_slug":null,"has_3d_model":false,"image_url":null,"decayed_at":null,"tle_current":{"epoch":"2026-05-24T23:54:18.658656Z","epoch_age_seconds":78911,"freshness":"FRESH","line1":"1 48377U 21038AA  26144.99604929  .00003774  00000+0  13323-3 0  9993","line2":"2 48377  53.1612 352.9583 0001212  94.6140 265.5000 15.31718529278911","mean_motion":15.31718529,"eccentricity":0.0001212,"inclination_deg":53.1612,"raan_deg":352.9583,"arg_perigee_deg":94.614,"mean_anomaly_deg":265.5,"bstar":0.00013323,"rev_number":27891,"period_min":94.012050695771,"perigee_km":469.85468460009,"apogee_km":471.51483899515,"semimajor_km":6848.8217617976,"source":"CELESTRAK","updated_at":"2026-05-25T13:38:16.688755Z"}}}